Weather History for Cedar City, UT

Change the Weather History Date:

Wednesday, November 21, 2012

  Actual Average Record
Temperature  
Mean Temperature 44 °F 35 °F  
Max Temperature 61 °F 49 °F 67 °F (1950)
Min Temperature 27 °F 21 °F 3 °F (1956)
Degree Days  
Heating Degree Days 21 30  
Month to date heating degree days 474 537  
Since 1 July heating degree days 933 1156  
Cooling Degree Days 0 0  
Month to date cooling degree days 0 0  
Year to date cooling degree days 715 588  
Moisture  
Dew Point 22 °F    
Average Humidity 45    
Maximum Humidity 69    
Minimum Humidity 20    
Precipitation  
Precipitation 0.00 in 0.03 in 0.93 in (1967)
Month to date precipitation 0.62 0.68  
Year to date precipitation 11.45 10.22  
Sea Level Pressure  
Sea Level Pressure 30.03 in    
Wind  
Wind Speed 9 mph (SSW)    
Max Wind Speed 22 mph    
Max Gust Speed 28 mph    
Visibility 10 miles    
Events      
T = Trace of Precipitation, MM = Missing Value Source: NWS Daily Summary

Daily Weather History Graph

Daily Weather History Graph

Search for Another Location

Airport:

Trip Planner

Search our weather history database for the weather conditions in past years. The results will help you decide how hot, cold, wet, or windy it might be!

Date:

Astronomy

Nov. 21, 2012 Rise Set
Actual Time 7:19 AM MST 5:17 PM MST
Civil Twilight 6:50 AM MST 5:45 PM MST
Nautical Twilight 6:18 AM MST 6:17 PM MST
Astronomical Twilight 5:47 AM MST 6:48 PM MST
Moon 1:29 PM MST (11/21) 12:49 AM MST (11/21)
Length of Visible Light 10h 54m
Length of Day
9h 57m
Waxing Gibbous, 62% of the Moon is Illuminated
Nov 21
Waxing Gibbous
Nov 28
Full
Dec 6
Last Quarter
Dec 13
New
Dec 19
First Quarter

Hourly Weather History & Observations

Time (MST) Temp. Windchill Dew Point Humidity Pressure Visibility Wind Dir Wind Speed Gust Speed Precip Events Conditions
12:53 AM 43.0 °F 37.2 °F 24.1 °F 47% 30.05 in 10.0 mi South 10.4 mph - N/A   Clear
1:53 AM 34.0 °F 28.0 °F 23.0 °F 64% 30.06 in 10.0 mi SSE 6.9 mph - N/A   Clear
2:53 AM 41.0 °F 36.4 °F 24.1 °F 51% 30.03 in 10.0 mi South 6.9 mph - N/A   Clear
3:53 AM 46.0 °F 41.0 °F 24.1 °F 42% 30.01 in 10.0 mi South 10.4 mph 18.4 mph N/A   Clear
4:53 AM 37.9 °F 34.4 °F 23.0 °F 55% 30.04 in 10.0 mi South 4.6 mph - N/A   Clear
5:53 AM 41.0 °F 38.0 °F 23.0 °F 49% 30.06 in 10.0 mi Variable 4.6 mph - N/A   Clear
6:53 AM 30.0 °F - 19.9 °F 66% 30.11 in 10.0 mi Calm Calm - N/A   Clear
7:53 AM 44.1 °F 39.5 °F 21.9 °F 42% 30.06 in 10.0 mi SSE 8.1 mph - N/A   Clear
9:53 AM 54.0 °F - 25.0 °F 33% 30.05 in 10.0 mi SSW 15.0 mph 20.7 mph N/A   Clear
10:53 AM 57.9 °F - 24.1 °F 27% 30.04 in 10.0 mi SW 16.1 mph 25.3 mph N/A   Clear
11:53 AM 59.0 °F - 24.1 °F 26% 30.01 in 10.0 mi WSW 19.6 mph 26.5 mph N/A   Clear
12:53 PM 60.1 °F - 21.9 °F 23% 29.98 in 10.0 mi SW 18.4 mph 26.5 mph N/A   Clear
1:53 PM 61.0 °F - 21.0 °F 21% 30.00 in 10.0 mi SW 15.0 mph 23.0 mph N/A   Clear
2:53 PM 60.1 °F - 21.0 °F 22% 29.96 in 10.0 mi SW 17.3 mph 23.0 mph N/A   Clear
3:53 PM 57.9 °F - 19.0 °F 22% 29.96 in 10.0 mi SW 13.8 mph 23.0 mph N/A   Clear
4:53 PM 53.1 °F - 19.9 °F 27% 29.99 in 10.0 mi SW 13.8 mph - N/A   Clear
5:53 PM 48.9 °F - 21.0 °F 33% 30.01 in 10.0 mi SW 8.1 mph - N/A   Clear
6:53 PM 48.0 °F - 21.0 °F 34% 30.07 in 10.0 mi SSW 8.1 mph - N/A   Clear
7:53 PM 44.1 °F 40.8 °F 23.0 °F 43% 30.05 in 10.0 mi South 5.8 mph - N/A   Clear
8:53 PM 45.0 °F 40.6 °F 23.0 °F 42% 30.06 in 10.0 mi SSW 8.1 mph - N/A   Clear
9:53 PM 39.0 °F 35.7 °F 21.0 °F 49% 30.06 in 10.0 mi SE 4.6 mph - N/A   Clear
10:53 PM 39.0 °F 35.7 °F 21.0 °F 49% 30.05 in 10.0 mi SE 4.6 mph - N/A   Clear
11:53 PM 36.0 °F - 21.0 °F 55% 30.06 in 10.0 mi Calm Calm - N/A   Clear